COSMOS 2251 DEB

Satellite information

Favourite Embed

Satellite Type and Status

DEBRISIN ORBIT

Key statistics

Satellite COSMOS 2251 DEB at a glance.

Uptime

11868

Days in orbit

Revolutions

≈ 14.4

Per day

Orbit

LEO

Low Earth Orbit

Inclination

73.9

Latest

Satellite identification and parameters

Extended collection of information and parameters for COSMOS 2251 DEB.

Object identification

Identified? True

Debris? True

Object name: COSMOS 2251 DEB

International designator: 1993-036DJ

Object number (NORAD): 33905

Object ID (CCSDS): 33905

Country: COMMONWEALTH OF INDEPENDENT STATES (CIS)

Current information (Y/N): Y

RCS size: SMALL

Orbital parameters

Period: 100.322 minutes

Inclination: 73.8875 deg

SMA: 7151.933 km

Apoapsis: 815.95 km

Periapsis: 731.646 km

RAAN: 317.9728 deg

Eccentricy: 0.0058938

Argument of periapsis: 207.6253 deg

Mean anomaly: 215.9729 deg

Mean motion: 14.35382416 rev/day

Mean motion (dot): 0.00003083 rev/day2

B* drag term: 0.001062 1/REarth

Two-line elements (TLE)

Creation date: Dec. 12, 2025, 7:06 a.m.

Reference frame: TEME

Reference center: EARTH

Epoch: Dec. 12, 2025, 12:31 a.m. UTC

TLE line 0: 0 COSMOS 2251 DEB

TLE line 1: 1 33905U 93036DJ 25346.02195078 .00003083 00000-0 10620-2 0 9998

TLE line 2: 2 33905 73.8875 317.9728 0058938 207.6253 215.9729 14.35382416876772

Live tracking on map

Real-time ground track for satellite COSMOS 2251 DEB.

In-orbit conjunctions

A list of the most updated potential collisions computed for object COSMOS 2251 DEB.

Target Orbit TCA Probability of collision Miss distance Type
CZ-6A DEB SSO 2025-12-03 02:20:54 0.0002115109 187.0 (m) DEBRIS
DELTA 1 DEB SSO 2025-05-27 07:05:10 0.0001039556 748.0 (m) DEBRIS
CZ-6A DEB SSO 2024-09-02 16:38:44 0.00015103 282.0 (m) DEBRIS
NOAA 16 DEB SSO 2024-08-07 02:09:52 0.001008974 23.0 (m) DEBRIS

Associated space launch

Military communications satellite. Destroyed in a collision with Iridium 33.

COSMOS 2251 DEB was lifted into orbit during the mission ‘Kosmos-3M | Strela-2M 51’, on board a Kosmos-3M space rocket.

The launch took place on June 16, 1993, 4:17 a.m. from 132/1 (132L).

For more information about the launch, click the button.

Launch to space Kosmos-3M | Strela-2M 51
Kosmos-3M | Strela-2M 51

Agency: N/A

Status: Launch Successful

Launch date: June 16, 1993, 4:17 a.m. UTC

Rocket: Kosmos-3M

Launch pad: 132/1 (132L)

Location: Plesetsk Cosmodrome, Russian Federation

...

Latest news about this satellite

There are no fresh news available about this satellite. Check back as we update our databases every day.


Newsletter sign-up

Weekly statistics, charts and insights to help you stay on top of the space industry.